Location: Bayencourt
(50.1320°N, 2.5748°E)
Time: 00:37:59
(UTC+00:00)

Daily predictions for brighter satellites

Satellite Brightness Start Highest point End
(mag) Time Altitude Azimuth Time Altitude Azimuth Time Altitude Azimuth
Cosmos 2219 Rocket 3.9 03:41:53 26° NNE 03:41:53 26° NNE 03:44:11 10° NNE
Cosmos 2237 Rocket 3.6 03:43:06 34° E 03:43:06 34° E 03:47:57 10° NE
BREEZE-M DEB (TANK) 4.2 03:55:50 76° SSW 03:55:50 76° SSW 04:00:41 10° ESE
Cosmos 2333 Rocket 3.6 04:04:35 30° NNE 04:04:35 30° NNE 04:07:25 10° NNE
Lacrosse 4 Rocket 3.8 04:04:26 21° ESE 04:04:26 21° ESE 04:07:39 10° ENE
FENGYUN 3A 4.3 04:00:15 10° NNE 04:04:52 51° ENE 04:04:52 51° ENE
Cosmos 2360 Rocket 4.1 04:15:25 19° N 04:15:25 19° N 04:17:23 10° NNE
Cosmos 1464 Rocket 4.2 04:13:47 39° SSE 04:16:05 66° E 04:22:13 10° NNE
SL-16 R/B 4.4 04:18:48 14° N 04:18:48 14° N 04:20:09 10° N
Cosmos 841 Rocket 4.1 04:16:53 53° E 04:16:53 53° E 04:21:28 10° NNE
Cosmos 1980 4.0 04:17:06 63° ESE 04:17:06 63° ESE 04:22:40 10° NE
Cosmos 2322 Rocket 4.3 04:20:13 15° N 04:20:13 15° N 04:21:39 10° N
Meteor 1-21 Rocket 4.5 04:17:53 53° NNE 04:19:07 69° ENE 04:24:56 10° SSE
COSMOS 2428 3.6 04:25:09 39° N 04:25:09 39° N 04:28:50 10° NNE
Cosmos 1072 Rocket 4.5 04:22:09 53° S 04:23:46 80° E 04:30:09 10° NNE
ATLAS CENTAUR R/B 3.1 04:31:44 27° E 04:31:44 27° E 04:34:10 10° ENE
METEOR-M 4.3 04:27:25 10° NNE 04:32:48 70° ESE 04:34:34 42° S
Cosmos 2084 Rocket 4.4 04:37:18 43° SE 04:37:18 43° SE 04:40:23 10° SE
ALOS 3.6 04:35:30 10° NNE 04:37:53 30° N 04:37:53 30° N
Cosmos 1602 Rocket 4.2 04:40:24 43° NNE 04:41:31 56° ENE 04:45:56 10° SSE
USA 215 3.3 04:35:47 10° ENE 04:42:11 60° NNW 04:43:15 54° NW
ADEOS 3.8 04:37:57 10° NNE 04:43:12 70° ESE 04:47:41 14° S
USA 307 4.0 04:44:43 38° SE 04:44:48 38° SE 04:48:43 10° ENE
GEOS 3 Rocket 4.3 04:39:39 10° ESE 04:44:52 52° NE 04:46:53 35° NNW
NOSS 0 Rocket 3.8 04:45:40 66° WSW 04:46:25 75° WNW 04:52:37 10° NNE
Nadezhda 4 Rocket 3.8 04:41:32 10° N 04:47:41 86° W 04:53:47 10° S
CZ-2C R/B 4.3 04:42:57 10° N 04:44:42 20° N 04:44:42 20° N
USA 305 3.7 04:50:49 42° SSE 04:51:03 43° SE 04:55:05 10° ENE
USA 308 3.8 04:53:18 41° SSE 04:53:45 43° SE 04:57:49 10° ENE
Cosmos 1943 Rocket 2.8 04:51:10 22° NNW 04:54:43 55° NE 05:00:17 10° SE
Cosmos 1400 Rocket 3.3 04:53:20 33° SSE 04:54:57 61° E 04:59:04 10° NNE
SL-4 R/B 2.7 04:55:30 46° SE 04:55:30 46° SE 04:59:04 10° ENE
Cosmos 2034 Rocket 3.9 04:51:17 10° S 04:57:40 88° WNW 05:04:02 10° N
Meteor 1-16 Rocket 4.3 04:52:40 10° S 04:58:36 82° E 05:04:32 10° NNE
Cosmos 1570 Rocket 3.8 04:57:36 53° SSW 04:58:51 83° WNW 05:04:09 10° NNE
SJ-12 4.1 04:57:18 10° NNE 05:01:29 73° ESE 05:04:12 21° S
Cosmos 540 Rocket 3.4 05:01:40 63° WNW 05:01:40 63° WNW 05:06:45 10° NNE
Cosmos 2298 Rocket 3.9 05:00:28 40° NNW 05:02:30 85° WSW 05:07:50 10° SSE
CZ-2C R/B 4.4 04:58:10 10° ESE 05:02:46 31° ENE 05:07:29 10° N
USA 306 3.5 05:02:36 45° S 05:03:16 50° SE 05:07:22 10° ENE
Cosmos 2369 Rocket 3.2 05:00:31 14° NNW 05:05:02 42° NE 05:10:19 10° ESE
Cosmos 1125 Rocket 3.7 05:01:52 23° NNW 05:05:16 73° ENE 05:10:34 10° SSE
NOSS 3-2 (A) 3.9 05:00:28 14° SSW 05:05:18 56° ESE 05:11:41 10° NE
Cosmos 1814 Rocket 3.8 05:03:50 43° SSW 05:05:32 81° WNW 05:10:42 10° NNE
CZ-4B R/B 3.3 05:06:57 10° NNE 05:10:34 56° ESE 05:14:16 10° S
Cosmos 1461 4.1 05:11:24 33° NNW 05:11:24 33° NNW 05:15:09 10° NNE
CZ-4B R/B 4.0 05:07:55 10° N 05:12:24 71° WNW 05:13:34 47° SW
COSMO-SKYMED 1 2.4 05:08:14 10° S 05:12:33 65° WSW 05:12:33 65° WSW
PSLV R/B 4.0 05:10:30 10° SSE 05:14:38 76° ENE 05:17:58 16° N
Cosmos 2278 Rocket 4.2 05:18:36 13° SSW 05:18:36 13° SSW 05:19:14 10° SSW
Cosmos 2228 4.4 05:14:12 10° SSE 05:18:09 39° E 05:22:07 10° NNE
SL-16 R/B 2.5 05:13:01 10° SSW 05:18:37 66° ESE 05:24:15 10° NNE
NOSS 3-2 (C) 4.5 05:13:44 10° S 05:19:03 44° ESE 05:25:08 10° NE
Cosmos 972 Rocket 4.4 05:16:58 10° SSW 05:23:10 77° ESE 05:28:43 10° NNE
Cosmos 2219 Rocket 3.4 05:23:36 23° NW 05:23:36 23° NW 05:27:42 10° NNE
Cosmos 2026 Rocket 4.0 05:17:00 10° N 05:23:24 87° E 05:29:48 10° S
ATLAS 5 CENTAUR R/B 3.9 05:25:46 13° SSW 05:25:46 13° SSW 05:26:53 10° S
ERS-2 2.0 05:21:36 10° S 05:25:10 64° WSW 05:25:10 64° WSW
CENTAUR R/B 3.3 05:20:30 10° SSW 05:26:15 53° ESE 05:33:04 10° NE
Cosmos 2237 Rocket 2.4 05:24:59 36° W 05:26:47 49° NW 05:32:20 10° NNE
Cosmos 2208 Rocket 4.0 05:23:25 22° SW 05:26:52 63° WNW 05:32:14 10° NNE
H-2A R/B 2.9 05:23:49 10° NNE 05:27:33 70° ESE 05:31:18 10° S
Cosmos 1953 4.2 05:32:23 17° NNW 05:32:23 17° NNW 05:33:28 10° N
Meteor PRIRODA 3.4 05:28:35 10° NNE 05:32:14 86° WNW 05:35:52 10° SSW
Cosmos 1606 Rocket 4.3 05:30:23 10° S 05:34:34 52° E 05:38:48 10° NNE
Lacrosse 4 Rocket 1.5 05:40:48 30° WSW 05:42:40 56° NW 05:47:01 10° NNE
Meteor 1-11 4.1 05:38:43 10° NNW 05:44:14 63° W 05:49:44 10° S
FENGYUN 3A 4.5 05:41:06 10° N 05:45:36 28° WNW 05:46:27 27° WNW
Cosmos 1300 2.6 05:42:37 10° S 05:46:26 89° E 05:50:17 10° N
Cosmos 2333 Rocket 3.7 05:46:36 18° NW 05:47:13 18° NNW 05:51:02 10° N
SAR-Lupe-4 3.8 05:45:25 10° S 05:48:52 45° W 05:50:19 28° NW
deb Chang Zheng 4 3.6 05:45:50 10° N 05:49:58 51° WNW 05:54:03 10° SW
Cosmos 1315 Rocket 2.7 05:47:05 10° S 05:50:59 84° E 05:54:56 10° NNE
Meteor 1-31 Rocket 3.9 05:49:58 10° N 05:52:39 25° NW 05:52:39 25° NW
Cosmos 2297 4.1 05:50:12 19° NW 05:53:52 42° WSW 05:59:13 10° S
Cosmos 1346 Rocket 3.1 05:54:23 15° NNW 05:57:20 43° W 06:01:07 10° SSW
MOS 1 Rocket 3.9 05:53:56 10° SSW 05:58:18 34° W 06:02:29 10° NNW
Cosmos 2360 Rocket 4.2 05:57:11 10° NNW 05:58:30 11° NNW 05:59:56 10° N
Cosmos 841 Rocket 4.4 05:57:01 23° W 05:58:38 27° NW 06:03:03 10° N
NOSS 5 (C) 4.5 05:57:05 14° SW 06:00:31 65° NW 06:03:46 10° NE
USA 238 DEB 3.6 05:54:20 10° SW 06:00:58 85° NW 06:07:58 10° NE
USA 238 3.6 05:54:27 10° SW 06:01:05 86° NW 06:08:04 10° NE
Cosmos 836 Rocket 4.5 05:56:01 10° SSW 06:01:17 88° WNW 06:06:33 10° NNE
Cosmos 1758 Rocket 3.9 05:57:57 10° NNW 06:02:12 42° W 06:06:23 10° SSW
FALCON 9 DEB 3.5 06:01:26 28° WNW 06:02:54 50° N 06:06:15 10° ENE
Cosmos 1689 Rocket 3.2 06:05:09 10° SSW 06:07:23 24° WSW 06:07:23 24° WSW
COSMOS 2428 4.2 06:07:11 15° NW 06:08:46 17° NNW 06:12:25 10° N
Cosmos 1441 Rocket 4.0 06:04:59 10° N 06:08:54 54° ENE 06:12:43 10° SSE
ATLAS CENTAUR R/B 1.7 06:07:57 22° W 06:09:43 35° NW 06:13:09 10° NNE
SL-19 R/B 4.4 06:10:11 10° NNE 06:13:59 68° ESE 06:17:14 10° S
BREEZE M DEB (TANK) 3.4 06:12:06 10° SW 06:14:21 38° SSE 06:19:05 10° ENE
ALOS 4.0 06:14:36 10° NNW 06:16:24 13° NW 06:16:24 13° NW
YAOGAN 6 2.9 06:14:14 10° N 06:17:49 46° WNW 06:21:21 10° SW
Cosmos 1892 2.6 06:13:58 10° NNW 06:17:50 83° W 06:21:42 10° S
Cosmos 1184 Rocket 4.1 06:15:11 10° N 06:18:19 41° ENE 06:21:25 10° SE
Spot 2 3.9 06:14:32 10° NNE 06:18:37 89° ESE 06:22:43 10° SSW
Cosmos 1726 Rocket 3.4 06:14:31 10° SSW 06:18:48 71° WNW 06:23:09 10° N
Cosmos 2058 Rocket 3.3 06:16:24 10° S 06:20:48 78° E 06:25:17 10° NNE
Cosmos 1603 4.5 06:16:21 10° S 06:21:49 57° ESE 06:27:22 10° NE
FALCON 9 DEB 3.2 06:19:19 10° SW 06:22:23 63° SSE 06:25:27 10° ENE
GEOS 3 Rocket 4.2 06:17:52 10° SSE 06:22:58 43° WSW 06:27:59 11° NW
USA 307 2.9 06:20:52 13° WSW 06:24:40 69° NNW 06:28:54 10° ENE
USA 215 3.7 06:18:29 10° ENE 06:24:42 49° N 06:30:36 12° WNW
CZ-4B DEB 4.2 06:22:21 10° NNE 06:27:56 75° WNW 06:33:27 10° SSW
In-Cosmos 22 Rocket 4.1 06:22:46 10° NNW 06:28:11 63° W 06:33:27 10° S
PSLV R/B 4.1 06:24:46 10° N 06:28:38 48° WNW 06:32:32 10° SW
Cosmos 2292 Rocket 3.1 06:27:08 10° NNW 06:30:01 43° W 06:33:15 10° SSW
USA 305 2.9 06:26:57 11° W 06:30:57 65° NNW 06:35:11 10° ENE
Cosmos 2279 Rocket 4.0 06:24:46 10° SSW 06:30:58 63° WNW 06:37:13 10° N
FALCON 9 DEB 3.2 06:28:02 10° WSW 06:31:09 66° SSE 06:34:16 10° ENE
Cosmos 1408 2.4 06:27:58 10° NNW 06:31:34 80° W 06:35:11 10° S
Cosmos 1400 Rocket 4.4 06:29:13 10° WSW 06:31:51 16° WNW 06:34:31 10° NNW
USA 308 3.0 06:29:28 10° W 06:33:41 65° NNW 06:37:57 10° ENE
Cosmos 2098 Rocket 4.2 06:28:46 10° NNW 06:33:45 31° W 06:37:49 10° SW
Okean O Rocket 1.8 06:29:33 10° NNE 06:33:57 77° ESE 06:38:17 10° S
Cosmos 1825 Rocket 4.5 06:30:52 10° NNW 06:34:40 28° W 06:38:27 10° SSW
SL-4 R/B 1.9 06:31:05 11° W 06:34:44 75° N 06:38:56 10° ENE
SMAP 3.0 06:31:21 10° NNE 06:36:02 77° WNW 06:40:40 10° SSW
Cosmos 2263 4.3 06:32:00 10° NW 06:37:37 64° WSW 06:43:14 10° SSE
Cosmos 1943 Rocket 3.1 06:33:20 10° NW 06:38:11 30° WSW 06:43:01 10° SSW
H-2A R/B 2.6 06:35:44 10° N 06:40:14 69° WNW 06:44:42 10° SSW
Iridium 4 Rocket 4.2 06:35:48 10° S 06:41:37 71° E 06:47:31 10° N
CZ-2C R/B 2.9 06:37:48 10° S 06:42:52 47° W 06:48:06 10° NNW
Cosmos 1939 Rocket 3.3 06:39:00 10° NNE 06:42:55 66° ESE 06:46:45 10° S
USA 306 3.0 06:39:03 10° W 06:43:15 60° NNW 06:47:27 10° ENE
Envisat 3.5 06:39:53 10° N 06:44:34 38° WNW 06:49:13 10° SW
CZ-4B R/B 4.3 06:43:11 10° NNW 06:45:18 15° WNW 06:47:27 10° W
Cosmos 2369 Rocket 2.7 06:43:52 10° NW 06:49:02 40° WSW 06:54:11 10° S
Cosmos 1076 Rocket 3.8 06:45:20 10° N 06:49:37 74° E 06:53:51 10° SSE
Cosmos 773 Rocket 4.1 06:44:35 10° SSW 06:49:50 84° ESE 06:55:04 10° NNE
Meteor 2-10 Rocket 3.8 06:49:24 10° SSW 06:55:12 69° WNW 07:00:56 10° N
Cosmos 2228 4.1 06:52:26 10° WSW 06:55:51 23° WNW 06:59:18 10° NNW
NOSS 3-2 (A) 3.9 06:50:42 10° WSW 06:56:23 44° NNW 07:03:00 10° NE
